#timestamp,LO_Frequency,Hit,StdDev 
1607490015.5,286046998.9,N
1607490035.3,286046998.1,N
1607490055.1,286046999.4,N
1607490075.9,286047001.2,N
1607490095.7,286046998.7,N
1607490115.5,286046999.0,N
1607490135.4,286046998.9,N
1607490155.2,286046998.1,N
1607490175.1,286047000.4,N
1607490176.0,286047000.4,N
1607490195.8,286046998.6,N
1607490215.6,286046998.5,N
1607490235.5,286046998.6,N
1607490255.3,286046999.0,N
1607490275.1,286046999.6,N
1607490295.9,286046998.4,N
1607490315.7,286046999.4,N
1607490335.6,286047000.5,N
1607490355.4,286046998.3,N
1607490375.2,286046998.3,N
1607490395.1,286046998.7,N
1607490396.0,286046998.7,N
1607490415.8,286046999.6,N
1607490435.6,286046998.2,N
1607490455.5,286046999.0,N
1607490475.3,286047000.8,N
1607490495.2,286047001.1,N
1607490515.9,286047002.7,Y
1607490535.7,286046999.7,P
1607490555.6,286047002.2,P
1607490575.4,286047003.4,N
1607490595.2,286047001.7,N
1607490615.1,286047001.9,N
1607490616.0,286047001.9,N
1607490635.8,286047002.2,N
1607490655.7,286047002.8,N
1607490675.5,286047001.6,N
1607490695.3,286047000.9,N
1607490715.2,286046998.6,N
1607490735.0,286047001.1,N
1607490735.9,286047001.1,N
1607490755.7,286047001.1,N
1607490775.6,286047000.0,N
1607490795.4,286046999.9,N
1607490815.3,286046998.4,N
1607490835.1,286046998.1,N
1607490836.0,286046998.1,N
1607490855.8,286047000.7,N
1607490875.7,286046998.6,N
1607490895.5,286047001.0,N
1607490915.3,286046998.4,N
1607490935.2,286046998.7,N
1607490955.0,286046999.0,N
1607490955.9,286046999.0,N
1607490975.8,286046997.3,N
1607490995.6,286046997.9,N
1607491015.4,286046995.4,N
1607491035.3,286046996.0,N
1607491055.1,286046994.0,Y
1607491075.9,286046992.4,P
1607491095.7,286046989.2,N
1607491115.5,286046990.1,N
1607491135.4,286046987.6,N
1607491155.2,286046989.6,N
1607491175.1,286046987.8,Y
1607491176.0,286046987.8,P
1607491195.8,286046992.6,P
1607491215.6,286046990.2,P
1607491235.5,286046990.0,Y
1607491255.3,286046996.3,P
1607491275.2,286046992.1,N
1607491295.9,286046993.2,N
1607491315.7,286046989.8,Y
1607491335.6,286046996.1,P
1607491355.4,286046994.5,P
1607491375.3,286046996.0,P
1607491395.1,286046994.3,Y
1607491396.0,286046994.3,P
1607491415.8,286046996.2,P
1607491435.7,286046992.5,P
1607491455.5,286046991.7,Y
1607491475.4,286046999.1,P
1607491495.2,286046998.4,N
1607491515.0,286046997.7,N
1607491515.9,286046997.7,N
1607491535.8,286046996.5,N
1607491555.6,286046997.7,N
1607491575.4,286046999.3,N
1607491595.3,286046997.3,N
1607491615.1,286046995.2,Y
1607491635.9,286046995.8,P
1607491655.7,286046996.4,P
1607491675.5,286046992.6,P
1607491695.4,286046994.6,N
1607491715.2,286046990.9,Y
1607491735.1,286046997.7,P
1607491736.0,286046997.7,N
1607491755.8,286046993.8,P
1607491775.6,286046996.2,N
1607491795.5,286046992.2,Y
1607491815.3,286046996.3,P
1607491835.2,286046992.2,P
1607491855.9,286046994.1,P
1607491875.7,286046993.0,Y
1607491895.6,286046996.2,P
1607491915.4,286046993.8,P
1607491935.2,286046993.7,P
1607491955.1,286046993.7,Y
1607491956.0,286046993.7,P
1607491975.8,286046998.4,P
1607491995.7,286046999.2,N
1607492015.5,286046994.9,N
1607492035.3,286046996.2,N
1607492055.2,286046994.3,N
1607492075.0,286046994.5,N
1607492075.9,286046994.5,N
1607492095.8,286046991.8,Y
1607492115.6,286046999.5,P
1607492135.4,286046994.9,N
1607492155.3,286046995.9,N
1607492175.1,286046996.2,N
1607492195.9,286046994.1,Y
1607492215.7,286046996.5,P
1607492235.5,286046996.7,P
1607492255.4,286046997.3,P
1607492275.2,286046997.8,Y
1607492295.1,286047001.0,P
1607492296.0,286047001.0,N
1607492315.8,286047000.1,N
1607492335.6,286047002.0,N
1607492355.5,286047002.5,N
1607492375.3,286047002.1,N
1607492395.1,286047000.4,N
1607492415.9,286047000.9,N
1607492435.7,286046999.0,N
1607492455.6,286046998.1,N
1607492475.4,286046998.3,N
1607492495.2,286046999.4,N
1607492515.1,286046997.5,N
1607492516.0,286046997.5,N
1607492535.8,286046995.7,N
1607492555.7,286046995.0,N
1607492575.5,286046995.5,N
1607492595.3,286046993.7,N
1607492615.2,286046996.1,N
1607492635.0,286046996.0,N
1607492635.9,286046996.0,N
1607492655.8,286046995.5,N
1607492675.6,286046993.6,N
1607492695.4,286046992.4,N
1607492715.3,286046992.2,N
1607492735.1,286046994.6,N
1607492755.8,286046993.2,N
1607492775.7,286046994.6,N
1607492795.5,286046993.8,N
1607492815.4,286046992.3,N
1607492835.2,286046990.9,N
1607492855.0,286046989.0,Y
1607492855.9,286046989.0,P
1607492875.8,286046994.0,N
1607492895.6,286046992.0,N
1607492915.4,286046994.4,N
1607492935.3,286046990.2,Y
1607492955.1,286046999.5,P
1607492975.9,286046998.5,N
1607492995.7,286046999.6,N
1607493015.5,286046996.9,N
1607493035.4,286046997.3,N
1607493055.2,286046997.5,N
1607493075.0,286046995.5,N
1607493075.9,286046995.5,N
1607493095.8,286046997.5,N
1607493115.6,286046998.4,N
1607493135.5,286046997.4,N
1607493155.3,286046998.3,N
1607493175.1,286046999.5,N
1607493195.9,286046998.5,N
1607493215.7,286046995.4,N
1607493235.5,286046996.2,N
1607493255.4,286046994.7,Y
1607493275.2,286046995.0,P
1607493295.1,286046996.3,P
1607493296.0,286046996.3,P
1607493315.8,286046997.6,N
1607493335.6,286046997.4,N
1607493355.5,286046994.9,Y
1607493375.3,286046999.2,P
1607493395.1,286046997.7,N
1607493415.9,286046997.8,N
1607493435.7,286046996.5,Y
1607493455.6,286047002.8,P
1607493475.4,286047003.1,N
1607493495.2,286047003.1,N
1607493515.1,286047003.5,N
1607493516.0,286047003.5,N
1607493535.8,286047001.4,N
1607493555.6,286047000.1,N
1607493575.5,286047003.7,N
1607493595.3,286047001.9,N
